Flag for Germany Weather past 2 weeks in Neustrelitz, Mecklenburg-Western Pomerania, Germany

Now
60 °F

Overcast.


Feels Like: 60 °F
Forecast: 51 / 61 °F
Wind: 5 mph from Southwest

Location: Neuruppin

Current Time: Sep 5, 2015 at 12:46:51 PM

Latest Report: Sep 5, 2015 at 12:00 PM


Visibility: 6 mi

Pressure: 29.78 "Hg

Humidity: 74%

Dew point: 51 °F

Location of NeustrelitzLocation

Historic Weather in Neustrelitz — Graph

°F

Neustrelitz temperature yesterday

Maximum temperature yesterday: 64 °F (at 3:00 PM)
Minimum temperature yesterday: 48 °F (at 7:00 AM)
Average temperature yesterday: 56 °F

Past Weeks' High & Low Weather Summary

 TemperatureHumidityPressure
High89 °F (Aug 31, 4:00 PM)99% (Aug 29, 3:00 AM)30.32 "Hg (Aug 29, 3:00 AM)
Low48 °F (Sep 4, 7:00 AM)32% (Aug 22, 3:00 PM)29.70 "Hg (Aug 24, 8:00 PM)
Average65 °F74%29.97 "Hg
* Reported Aug 21 10:00 AM — Sep 5 10:00 AM, Neustrelitz, Weather by CustomWeather, © 2015

Note: Actual official high and low records may vary slightly from our data, if they occured in-between our weather recording intervals... More about our weather records

Advertising

Neustrelitz weather history for previous 24 hours

 ConditionsComfort  
Time TempWeatherWind HumidityBarometerVisibility
10:00 AM
Sat, Sep 5
59 °FOvercast.5 mph79%29.77 "Hg6 mi
9:00 AM55 °FOvercast.5 mph92%29.77 "Hg6 mi
8:00 AM56 °FOvercast.5 mph85%29.75 "Hg6 mi
7:00 AM55 °FOvercast.5 mph87%29.74 "Hg6 mi
4:00 AM54 °FOvercast.5 mph80%29.77 "Hg6 mi
3:00 AM52 °FClear.2 mph83%29.79 "Hg6 mi
2:00 AM53 °FClear.2 mph83%29.81 "Hg6 mi
1:00 AM52 °FPassing clouds.2 mph84%29.83 "Hg6 mi
11:00 PM
Fri, Sep 4
53 °FClear.2 mph79%29.86 "Hg6 mi
10:00 PM55 °FClear.2 mph76%29.87 "Hg6 mi
9:00 PM56 °FClear.1 mph72%29.87 "Hg6 mi
8:00 PM59 °FClear.1 mph69%29.86 "Hg6 mi
7:00 PM62 °FPassing clouds.2 mph61%29.86 "Hg7 mi
6:00 PM63 °FPassing clouds.2 mph58%29.87 "Hg6 mi
5:00 PM64 °FPassing clouds.5 mph55%29.88 "Hg6 mi
4:00 PM63 °FOvercast.3 mph62%29.90 "Hg6 mi
3:00 PM64 °FPartly sunny.2 mph64%29.91 "Hg6 mi
2:00 PM64 °FPassing clouds.1 mph66%29.93 "Hg6 mi
1:00 PM59 °FOvercast.1 mph75%29.94 "Hg6 mi
12:00 PM58 °FOvercast.1 mph81%29.95 "Hg6 mi
Weather by CustomWeather, © 2015

See weather overviewHow to use our weather pages